Location: Newark
(46.9000°N, 28.3500°E)
Time: 20:09:30
(UTC+00:00)

Explorer 7 - Pass Details

Date: 29 August 2019
Orbit: 485 x 680 km, 50.3° (Epoch: 14 September)

Event Time Altitude Azimuth Distance (km) Brightness Sun altitude
Rises 08:24:21 0° 281° (W) 3,007 10.3 46.6°
Reaches altitude 10° 08:26:47 10° 285° (WNW) 2,074 9.5 46.8°
Maximum altitude 08:31:31 57° 5° (N) 752 7.9 47.3°
Drops below altitude 10° 08:35:59 10° 84° (E) 1,967 10.1 47.7°
Sets 08:38:15 0° 89° (E) 2,837 10.8 48.0°
